Bishop, CA

9:00 PM PST on February 22, 2017 (GMT -0800)
Bishop

Weather History for KBIH - February, 2014

Change the Weather History Date:

Wednesday, February 26, 2014

  Actual Average Record
Temperature  
Mean Temperature 49 °F 45 °F  
Max Temperature 66 °F 61 °F 80 °F (1986)
Min Temperature 31 °F 29 °F 17 °F (1955)
Degree Days  
Heating Degree Days 16 20  
Month to date heating degree days 486 598  
Since 1 July heating degree days 2912 3167  
Cooling Degree Days 0 0  
Month to date cooling degree days 0 0  
Year to date cooling degree days 0 0  
Moisture  
Dew Point 26 °F    
Average Humidity 39    
Maximum Humidity 54    
Minimum Humidity 24    
Precipitation  
Precipitation 0.05 in 0.03 in 0.34 in (1993)
Month to date precipitation 0.05 0.79  
Year to date precipitation 0.25 1.84  
Snow  
Snow 0.00 in 0.00 in 4.00 in (1993)
Month to date snowfall 0.0 0.7  
Since 1 July snowfall 0.5 7.4  
Snow Depth 0.00 in    
Sea Level Pressure  
Sea Level Pressure 29.82 in    
Wind  
Wind Speed 13 mph (South)    
Max Wind Speed 29 mph    
Max Gust Speed 40 mph    
Visibility 10 miles    
Events Rain    
T = Trace of Precipitation, MM = Missing Value Source: NWS Daily Summary

Daily Weather History Graph

Daily Weather History Graph

Search for Another Location

Airport or City:

Trip Planner

Search our weather history database for the weather conditions in past years. The results will help you decide how hot, cold, wet, or windy it might be!

Date:

Astronomy

Feb. 26, 2014 Rise Set
Actual Time 6:28 AM PST 5:44 PM PST
Civil Twilight 6:02 AM PST 6:10 PM PST
Nautical Twilight 5:32 AM PST 6:41 PM PST
Astronomical Twilight 5:01 AM PST 7:11 PM PST
Moon 4:15 AM PST (2/26) 3:07 PM PST (2/26)
Length of Visible Light 12h 08m
Length of Day
11h 15m
Waning Crescent, 9% of the Moon is Illuminated
Feb 26
Waning Crescent
Mar 1
New
Mar 8
First Quarter
Mar 16
Full
Mar 23
Last Quarter

Hourly Weather History & Observations

Time (PST) Temp. Windchill Dew Point Humidity Pressure Visibility Wind Dir Wind Speed Gust Speed Precip Events Conditions
12:56 AM 39.9 °F 34.5 °F 18.0 °F 41% 29.90 in 10.0 mi NW 8.1 mph - N/A   Clear
1:56 AM 39.0 °F 32.8 °F 18.0 °F 43% 29.89 in 10.0 mi NW 9.2 mph - N/A   Clear
2:56 AM 37.9 °F 32.1 °F 18.0 °F 45% 29.88 in 10.0 mi NW 8.1 mph - N/A   Clear
3:56 AM 36.0 °F 32.1 °F 18.0 °F 48% 29.89 in 10.0 mi NW 4.6 mph - N/A   Clear
4:56 AM 36.0 °F - 18.0 °F 48% 29.90 in 10.0 mi Calm Calm - N/A   Clear
5:56 AM 33.1 °F 27.7 °F 17.1 °F 52% 29.91 in 10.0 mi NW 5.8 mph - N/A   Clear
6:56 AM 34.0 °F - 18.0 °F 52% 29.93 in 10.0 mi Calm Calm - N/A   Scattered Clouds
7:56 AM 42.1 °F - 19.9 °F 41% 29.92 in 10.0 mi Calm Calm - N/A   Clear
8:56 AM 48.0 °F - 21.0 °F 34% 29.92 in 10.0 mi NNW 3.5 mph - N/A   Clear
9:56 AM 54.0 °F - 21.0 °F 28% 29.89 in 10.0 mi SE 4.6 mph - N/A   Clear
10:56 AM 63.0 °F - 26.1 °F 25% 29.86 in 10.0 mi South 19.6 mph 26.5 mph N/A   Clear
11:56 AM 62.1 °F - 26.1 °F 25% 29.82 in 10.0 mi South 20.7 mph 32.2 mph N/A   Clear
12:56 PM 64.9 °F - 27.0 °F 24% 29.78 in 10.0 mi South 23.0 mph 32.2 mph N/A   Scattered Clouds
1:56 PM 64.0 °F - 28.0 °F 26% 29.77 in 10.0 mi SSE 23.0 mph 33.4 mph N/A   Scattered Clouds
2:56 PM 64.0 °F - 28.9 °F 27% 29.76 in 10.0 mi SSE 23.0 mph 29.9 mph N/A   Mostly Cloudy
3:56 PM 62.1 °F - 32.0 °F 32% 29.79 in 10.0 mi SSE 17.3 mph 28.8 mph 0.00 in Rain Light Rain
4:56 PM 57.9 °F - 33.1 °F 39% 29.78 in 10.0 mi SE 19.6 mph - 0.00 in   Partly Cloudy
5:56 PM 55.9 °F - 34.0 °F 44% 29.77 in 10.0 mi SSE 17.3 mph - N/A   Mostly Cloudy
6:56 PM 55.0 °F - 34.0 °F 45% 29.77 in 10.0 mi SSE 13.8 mph - N/A   Scattered Clouds
7:56 PM 55.9 °F - 34.0 °F 44% 29.75 in 10.0 mi SSE 17.3 mph - N/A   Mostly Cloudy
8:56 PM 57.0 °F - 33.1 °F 40% 29.74 in 10.0 mi SSE 21.9 mph 28.8 mph N/A   Scattered Clouds
9:56 PM 55.9 °F - 32.0 °F 40% 29.72 in 10.0 mi SSE 20.7 mph 26.5 mph N/A   Mostly Cloudy
10:56 PM 53.1 °F - 37.9 °F 57% 29.69 in 10.0 mi SSE 18.4 mph - 0.01 in   Overcast
11:56 PM 48.9 °F - 42.1 °F 77% 29.70 in 7.0 mi South 12.7 mph - 0.04 in Rain Light Rain